9A5BAA Weather Reports


time (UTC)temp
C
wind
direction
speed
KPH
gust
KPH
rain 1hr
cm
rain 24hr
cm
rain mn
cm
humidity
%
barometer
mb
20260507235027 10 65 8.0 14.5 0.00 1.30 0.00 74 1016.3
20260507234540 10 75 8.0 14.5 0.00 1.30 0.00 75 1016.3
20260507234027 9 69 1.6 4.8 0.00 1.30 0.00 77 1016.4
20260507233527 10 0 0.0 8.0 0.00 1.30 0.00 78 1016.5
20260507233044 10 78 0.0 8.0 0.00 1.30 0.00 76 1016.7
20260507232529 10 70 3.2 8.0 0.00 1.30 0.00 76 1016.6
20260507232027 10 53 3.2 8.0 0.00 1.30 0.00 77 1016.7
20260507231539 10 0 1.6 6.4 0.00 1.30 0.00 78 1016.6
20260507231027 10 0 0.0 6.4 0.00 1.30 0.00 77 1016.8
20260507230527 10 58 3.2 6.4 0.00 1.30 0.00 76 1016.9
20260507230045 10 77 0.0 9.7 0.00 1.30 0.00 75 1016.8
20260507225527 10 77 3.2 11.3 0.00 1.32 0.00 75 1016.8
20260507225027 10 55 4.8 11.3 0.00 1.32 0.00 75 1016.8
20260507224542 10 65 6.4 11.3 0.00 1.32 0.00 75 1016.8
20260507224027 10 56 6.4 11.3 0.00 1.32 0.00 74 1016.8
20260507223527 11 60 4.8 11.3 0.00 1.32 0.00 74 1016.8
20260507223044 11 55 4.8 9.7 0.00 1.32 0.00 73 1016.9
20260507222531 11 49 3.2 11.3 0.00 1.32 0.00 72 1016.6
20260507222027 11 56 4.8 11.3 0.00 1.32 0.00 73 1016.7
20260507221540 11 44 6.4 12.9 0.00 1.32 0.00 73 1016.8
20260507221026 11 65 4.8 12.9 0.00 1.32 0.00 73 1016.7
20260507220527 11 56 6.4 12.9 0.00 1.32 0.00 74 1016.5
20260507220039 11 55 6.4 12.9 0.00 1.32 0.00 74 1016.5
20260507215527 11 72 6.4 12.9 0.00 1.32 1.32 75 1016.5
20260507215027 11 72 8.0 12.9 0.00 1.32 1.32 75 1016.5
20260507214549 11 53 6.4 11.3 0.00 1.32 1.32 75 1016.6
20260507214027 11 76 4.8 9.7 0.00 1.32 1.32 76 1016.5
20260507213529 11 82 3.2 9.7 0.00 1.32 1.32 76 1016.5
20260507213043 11 103 3.2 11.3 0.00 1.32 1.32 76 1016.6
20260507212527 11 91 4.8 12.9 0.00 1.32 1.32 76 1016.6
20260507212027 10 65 6.4 12.9 0.00 1.32 1.32 77 1016.6
20260507211542 10 60 6.4 12.9 0.00 1.32 1.32 77 1016.5
20260507211027 10 38 6.4 12.9 0.00 1.32 1.32 78 1016.6
20260507210527 10 57 6.4 12.9 0.00 1.32 1.32 77 1016.6
20260507210040 10 91 6.4 12.9 0.00 1.32 1.32 77 1016.6
20260507205527 10 49 6.4 12.9 0.00 1.32 1.32 78 1016.6
20260507205031 10 68 4.8 9.7 0.00 1.32 1.32 79 1016.6
20260507204539 10 74 4.8 9.7 0.00 1.32 1.32 81 1016.7
20260507204029 10 86 4.8 9.7 0.00 1.32 1.32 82 1016.7
20260507203528 10 70 3.2 9.7 0.00 1.32 1.32 84 1016.9
20260507203047 9 60 0.0 0.0 0.00 1.32 1.32 84 1016.9
20260507202527 9 0 0.0 3.2 0.00 1.32 1.32 84 1016.9
20260507202027 9 0 0.0 3.2 0.00 1.32 1.32 84 1017.0
20260507201554 10 0 0.0 3.2 0.00 1.32 1.32 84 1017.0
20260507201027 10 44 0.0 3.2 0.00 1.32 1.32 84 1017.0
20260507200527 10 0 0.0 3.2 0.00 1.32 1.32 84 1017.2
20260507200059 10 67 0.0 8.0 0.00 1.32 1.32 82 1017.0
20260507195527 10 68 3.2 9.7 0.00 1.32 1.32 82 1017.0
20260507195027 10 57 4.8 9.7 0.00 1.32 1.32 82 1016.9
20260507194540 10 56 4.8 9.7 0.00 1.32 1.32 82 1016.8
20260507194026 10 70 4.8 9.7 0.00 1.32 1.32 82 1016.9
20260507193527 10 103 1.6 8.0 0.00 1.32 1.32 82 1016.9
20260507193045 10 101 3.2 9.7 0.00 1.32 1.32 83 1017.0
20260507192528 10 65 4.8 11.3 0.00 1.32 1.32 83 1016.8
20260507192029 10 49 4.8 11.3 0.00 1.32 1.32 84 1016.8
20260507191546 10 37 4.8 9.7 0.00 1.32 1.32 86 1016.8
20260507191027 10 91 3.2 8.0 0.00 1.32 1.32 87 1016.7
20260507190529 10 53 0.0 6.4 0.00 1.32 1.32 87 1016.8
20260507190049 10 0 0.0 6.4 0.00 1.32 1.32 87 1016.7
20260507185532 11 53 1.6 6.4 0.00 1.32 1.32 86 1016.6
20260507185027 11 52 3.2 9.7 0.00 1.32 1.32 85 1016.5
20260507184550 11 73 3.2 12.9 0.00 1.32 1.32 84 1016.4
20260507184027 11 75 3.2 12.9 0.00 1.32 1.32 84 1016.3
20260507183527 11 73 1.6 9.7 0.00 1.32 1.32 84 1016.3
20260507183038 11 94 3.2 8.0 0.00 1.32 1.32 85 1016.3
20260507182527 11 79 3.2 8.0 0.00 1.32 1.32 86 1016.3
20260507182027 11 0 0.0 11.3 0.00 1.32 1.32 85 1016.3
20260507181538 11 61 3.2 12.9 0.00 1.32 1.32 84 1016.3
20260507181027 11 56 3.2 12.9 0.00 1.32 1.32 83 1016.0
20260507180530 11 95 4.8 12.9 0.00 1.32 1.32 83 1016.0
20260507180040 11 47 1.6 12.9 0.00 1.32 1.32 83 1016.1
20260507175527 11 107 3.2 11.3 0.00 1.32 1.32 83 1016.0
20260507175027 11 63 4.8 11.3 0.00 1.32 1.32 83 1015.9
20260507174539 11 56 3.2 9.7 0.00 1.32 1.32 83 1015.8
20260507174029 11 92 3.2 11.3 0.00 1.32 1.32 83 1015.8
20260507173531 11 84 4.8 11.3 0.00 1.32 1.32 83 1015.7
20260507173043 11 77 1.6 8.0 0.00 1.32 1.32 83 1015.7
20260507172527 11 90 1.6 9.7 0.00 1.32 1.32 82 1015.7
20260507172027 11 0 3.2 12.9 0.00 1.32 1.32 82 1015.7
20260507171541 12 114 1.6 16.1 0.00 1.32 1.32 81 1015.8
20260507171027 12 105 4.8 16.1 0.00 1.32 1.32 81 1015.7
20260507170528 12 117 3.2 9.7 0.00 1.32 1.32 81 1015.9
20260507170039 12 108 3.2 9.7 0.00 1.32 1.32 81 1015.9
20260507165530 12 104 3.2 8.0 0.00 1.32 1.32 82 1015.9
20260507165027 12 68 3.2 8.0 0.00 1.32 1.32 81 1015.9
20260507164550 12 86 3.2 8.0 0.00 1.32 1.32 82 1016.0
20260507164028 12 110 3.2 9.7 0.00 1.32 1.32 82 1016.0
20260507163530 12 76 0.0 17.7 0.00 1.32 1.32 82 1016.0
20260507163045 12 92 4.8 17.7 0.00 1.32 1.32 81 1015.9
20260507162527 12 108 4.8 17.7 0.00 1.32 1.32 82 1015.9
20260507162028 12 79 6.4 12.9 0.00 1.32 1.32 82 1015.9
20260507161546 12 110 6.4 12.9 0.00 1.32 1.32 82 1016.0
20260507161027 12 153 4.8 12.9 0.00 1.32 1.32 83 1016.0
20260507160527 12 148 4.8 12.9 0.00 1.32 1.32 84 1016.0
20260507160040 12 100 6.4 12.9 0.00 1.32 1.32 84 1015.9
20260507155526 12 131 4.8 11.3 0.00 1.32 1.32 84 1016.0
20260507155027 12 163 4.8 12.9 0.00 1.32 1.32 84 1016.0
20260507154545 12 111 1.6 12.9 0.00 1.32 1.32 84 1015.9
20260507154028 12 121 4.8 12.9 0.00 1.32 1.32 83 1015.9
20260507153527 12 107 3.2 9.7 0.00 1.32 1.32 84 1015.9
20260507153038 12 91 3.2 9.7 0.00 1.32 1.32 85 1015.9
20260507152527 12 98 4.8 14.5 0.00 1.32 1.32 85 1016.0
20260507152028 12 82 6.4 16.1 0.00 1.32 1.32 85 1016.0
20260507151539 12 110 8.0 16.1 0.00 1.32 1.32 85 1015.9
20260507151027 12 134 6.4 14.5 0.00 1.32 1.32 85 1016.0
20260507150527 12 116 6.4 16.1 0.00 1.32 1.32 85 1015.9
20260507150043 12 126 6.4 16.1 0.00 1.32 1.32 86 1015.9
20260507145527 12 63 8.0 16.1 0.00 1.32 1.32 86 1016.0
20260507145027 12 123 4.8 19.3 0.00 1.32 1.32 87 1016.0
20260507144540 12 127 8.0 22.5 0.00 1.32 1.32 87 1015.9
20260507144028 12 79 9.7 22.5 0.00 1.32 1.32 86 1016.0
20260507143528 12 103 9.7 22.5 0.00 1.32 1.32 87 1016.0
20260507143039 12 117 8.0 20.9 0.00 1.32 1.32 88 1016.2
20260507142527 12 114 9.7 20.9 0.00 1.32 1.32 88 1016.2
20260507142027 12 115 6.4 20.9 0.00 1.32 1.32 88 1016.1
20260507141552 12 84 4.8 14.5 0.00 1.32 1.32 89 1016.2
20260507141027 11 135 6.4 12.9 0.00 1.32 1.32 89 1016.2
20260507140528 11 70 3.2 12.9 0.00 1.32 1.32 90 1016.2
20260507140044 11 123 4.8 11.3 0.00 1.32 1.32 89 1016.1
20260507135527 11 101 4.8 14.5 0.00 1.35 1.32 90 1016.2
20260507135028 11 83 6.4 16.1 0.00 1.35 1.32 90 1016.2
20260507134539 11 86 6.4 16.1 0.00 1.35 1.32 90 1016.2
20260507134027 11 110 4.8 12.9 0.00 1.35 1.32 90 1016.2
20260507133529 11 45 6.4 14.5 0.00 1.35 1.32 90 1016.3
20260507133055 11 72 4.8 14.5 0.00 1.35 1.32 90 1016.3
20260507132533 11 96 3.2 12.9 0.00 1.35 1.32 91 1016.3
20260507132027 11 112 6.4 12.9 0.00 1.35 1.32 90 1016.3
20260507131551 12 95 3.2 11.3 0.00 1.35 1.32 91 1016.3
20260507131028 12 69 3.2 9.7 0.00 1.35 1.32 91 1016.3
20260507130528 12 73 1.6 11.3 0.00 1.35 1.32 92 1016.2
20260507130054 11 144 4.8 14.5 0.00 1.35 1.32 92 1016.2
20260507125527 11 93 1.6 14.5 0.00 1.35 1.32 93 1016.3
20260507125027 11 63 3.2 12.9 0.00 1.35 1.32 93 1016.2
20260507124544 11 96 3.2 12.9 0.00 1.35 1.32 93 1016.3
20260507124027 11 82 6.4 12.9 0.00 1.35 1.32 93 1016.4
20260507123527 11 120 4.8 12.9 0.00 1.35 1.32 94 1016.4
20260507123039 11 106 3.2 12.9 0.03 1.35 1.32 94 1016.3
20260507122529 11 117 4.8 12.9 0.08 1.35 1.32 93 1016.1
20260507122030 10 100 1.6 14.5 0.18 1.35 1.32 93 1016.2
20260507121538 10 101 4.8 14.5 0.23 1.35 1.32 93 1016.2
20260507121028 10 116 3.2 12.9 0.28 1.35 1.32 93 1016.0
20260507120527 10 113 3.2 11.3 0.33 1.35 1.32 93 1016.2
20260507120051 10 117 3.2 12.9 0.38 1.35 1.32 93 1016.0
20260507115527 10 92 4.8 19.3 0.46 1.35 1.32 93 1015.9
20260507115031 10 123 8.0 19.3 0.46 1.35 1.32 93 1015.9
20260507114617 10 181 0.0 11.3 0.48 1.35 1.32 93 1015.9
20260507114027 10 255 1.6 11.3 0.56 1.35 1.32 93 1015.9
20260507113529 10 228 6.4 12.9 0.56 1.35 1.32 93 1015.8
20260507113039 10 104 3.2 12.9 0.56 1.30 1.27 92 1015.6
20260507112531 10 95 1.6 16.1 0.53 1.24 1.22 92 1015.5
20260507112027 10 176 1.6 16.1 0.46 1.17 1.14 92 1015.6
20260507111539 10 88 6.4 16.1 0.38 1.09 1.07 92 1015.4
20260507111027 10 114 6.4 16.1 0.36 1.04 1.02 92 1015.4
20260507110522 10 58 4.8 12.9 0.30 1.02 0.99 93 1015.4
20260507110039 10 117 6.4 16.1 0.25 0.94 0.91 93 1015.6
20260507105523 10 57 4.8 17.7 0.20 0.89 0.86 93 1015.6
20260507105025 10 27 6.4 17.7 0.20 0.86 0.84 93 1015.7
20260507104537 10 117 4.8 16.1 0.18 0.84 0.81 93 1015.6
20260507104025 10 94 6.4 16.1 0.15 0.79 0.76 93 1015.7
20260507103525 10 150 6.4 12.9 0.10 0.74 0.74 93 1015.7
20260507103035 10 94 4.8 12.9 0.10 0.74 0.71 93 1015.6
20260507102525 10 121 3.2 11.3 0.08 0.71 0.69 93 1015.7
20260507102023 10 60 4.8 11.3 0.08 0.69 0.66 93 1015.6
20260507101544 10 92 6.4 11.3 0.10 0.69 0.66 93 1015.6
20260507101024 10 79 3.2 12.9 0.13 0.69 0.66 93 1015.6
20260507100526 10 73 3.2 12.9 0.15 0.69 0.66 93 1015.6
20260507100040 10 95 6.4 12.9 0.15 0.66 0.64 93 1015.8
20260507095523 10 120 6.4 16.1 0.18 0.66 0.64 93 1015.8
20260507095026 10 105 6.4 17.7 0.18 0.64 0.64 92 1015.7
20260507094540 10 141 4.8 17.7 0.18 0.64 0.64 93 1015.7
20260507094025 10 77 9.7 17.7 0.18 0.64 0.61 92 1015.5
20260507093522 10 126 3.2 17.7 0.20 0.64 0.61 93 1015.7
20260507093038 10 174 4.8 22.5 0.20 0.61 0.58 93 1015.7
20260507092526 9 139 11.3 24.1 0.23 0.61 0.58 92 1015.7
20260507092022 9 103 9.7 24.1 0.20 0.58 0.56 92 1015.6
20260507091546 9 129 9.7 22.5 0.20 0.56 0.56 92 1015.7
20260507091025 9 119 9.7 24.1 0.18 0.56 0.53 92 1015.7
20260507090528 9 354 11.3 24.1 0.18 0.53 0.51 92 1015.3
20260507090041 9 68 11.3 25.7 0.18 0.51 0.48 92 1015.4
20260507085526 9 92 11.3 25.7 0.18 0.48 0.46 92 1015.2
20260507085026 9 110 12.9 25.7 0.13 0.46 0.43 92 1015.4
20260507084553 9 86 11.3 22.5 0.13 0.46 0.43 92 1015.2
20260507084025 9 100 8.0 20.9 0.13 0.43 0.41 92 1015.4
20260507083526 9 153 8.0 20.9 0.10 0.41 0.38 92 1015.3
20260507083038 9 90 8.0 20.9 0.10 0.38 0.36 92 1015.3
20260507082526 9 115 9.7 20.9 0.08 0.36 0.36 92 1015.4
20260507082025 9 87 8.0 25.7 0.08 0.36 0.36 92 1015.6
20260507081547 9 100 8.0 25.7 0.08 0.36 0.33 92 1015.2
20260507081023 9 72 11.3 20.9 0.08 0.36 0.33 92 1015.4
20260507080522 9 83 9.7 24.1 0.08 0.33 0.30 92 1015.4
20260507080048 8 68 9.7 24.1 0.08 0.33 0.30 92 1015.4
20260507075525 8 77 6.4 16.1 0.08 0.30 0.28 92 1015.4
20260507075025 8 141 4.8 16.1 0.08 0.30 0.28 92 1015.3
20260507074542 8 70 4.8 16.1 0.08 0.30 0.28 92 1015.4
20260507074027 8 92 8.0 16.1 0.08 0.28 0.28 91 1015.6
20260507073526 8 110 8.0 16.1 0.08 0.28 0.28 91 1015.5
20260507073040 8 74 4.8 22.5 0.05 0.28 0.25 91 1015.6
20260507072526 8 115 8.0 22.5 0.08 0.28 0.25 91 1015.3
20260507072025 8 70 8.0 19.3 0.08 0.28 0.25 91 1015.3
20260507071538 8 92 8.0 17.7 0.05 0.25 0.23 91 1015.3
20260507071029 8 123 9.7 17.7 0.08 0.25 0.23 91 1015.4
20260507070525 8 98 4.8 22.5 0.05 0.23 0.20 91 1015.4
20260507070038 8 91 6.4 22.5 0.05 0.23 0.20 91 1015.4
20260507065522 8 91 4.8 17.7 0.05 0.23 0.20 91 1015.4
20260507065022 8 89 4.8 17.7 0.08 0.23 0.20 91 1015.6
20260507064538 8 140 8.0 17.7 0.05 0.20 0.18 91 1015.6
20260507064025 8 70 8.0 20.9 0.05 0.20 0.18 90 1015.5
20260507063521 8 106 8.0 20.9 0.05 0.20 0.18 90 1015.4
20260507063038 8 74 8.0 20.9 0.03 0.18 0.18 90 1015.5
20260507062526 8 90 9.7 29.0 0.03 0.18 0.18 89 1015.7
20260507062026 8 132 6.4 29.0 0.03 0.18 0.18 89 1015.6
20260507061540 8 98 11.3 29.0 0.00 0.18 0.15 88 1015.5
20260507061027 8 98 6.4 22.5 0.00 0.18 0.15 88 1015.7
20260507060525 8 150 8.0 22.5 0.00 0.18 0.15 88 1015.6
20260507060048 8 106 9.7 22.5 0.00 0.18 0.15 87 1015.7
20260507055526 8 105 9.7 24.1 0.00 0.18 0.15 87 1015.6
20260507055029 8 129 8.0 24.1 0.00 0.15 0.13 86 1015.6
20260507054539 9 233 6.4 22.5 0.00 0.15 0.13 85 1015.5
20260507054025 9 130 9.7 22.5 0.00 0.15 0.13 85 1015.5
20260507053524 9 90 8.0 22.5 0.00 0.15 0.13 85 1015.6
20260507053044 9 201 4.8 22.5 0.00 0.15 0.13 85 1015.6
20260507052522 9 104 11.3 22.5 0.00 0.15 0.13 84 1015.6
20260507052025 9 129 3.2 19.3 0.00 0.15 0.13 85 1015.6
20260507051540 9 107 4.8 16.1 0.00 0.15 0.13 85 1015.6
20260507051024 9 101 4.8 16.1 0.00 0.15 0.13 85 1015.6
20260507050527 9 147 6.4 17.7 0.00 0.15 0.13 84 1015.7
20260507050038 9 108 8.0 17.7 0.00 0.15 0.13 84 1015.6
20260507045526 9 83 6.4 25.7 0.00 0.15 0.13 83 1015.3
20260507045026 9 136 9.7 25.7 0.00 0.15 0.13 83 1015.4
20260507044539 9 113 9.7 25.7 0.00 0.15 0.13 82 1015.4
20260507044025 10 115 9.7 24.1 0.00 0.15 0.13 83 1015.3
20260507043525 9 143 6.4 20.9 0.00 0.15 0.13 83 1015.2
20260507043038 9 108 9.7 20.9 0.00 0.15 0.13 83 1015.1
20260507042526 9 154 9.7 20.9 0.00 0.15 0.13 84 1015.0
20260507042027 9 97 4.8 12.9 0.00 0.15 0.13 85 1015.0
20260507041548 9 0 0.0 9.7 0.00 0.15 0.13 86 1015.0
20260507041026 9 141 3.2 11.3 0.00 0.15 0.13 85 1015.0
20260507040526 9 129 4.8 12.9 0.00 0.15 0.13 86 1014.7
20260507040043 9 129 4.8 12.9 0.00 0.15 0.13 86 1014.5
20260507035526 9 136 4.8 16.1 0.00 0.15 0.13 86 1014.6
20260507035026 9 122 6.4 19.3 0.00 0.15 0.13 86 1014.6
20260507034539 9 125 6.4 19.3 0.03 0.15 0.13 85 1014.3
20260507034025 9 134 6.4 17.7 0.05 0.15 0.13 85 1014.0
20260507033526 9 99 8.0 19.3 0.08 0.15 0.13 86 1014.1
20260507033039 9 64 9.7 22.5 0.08 0.15 0.13 86 1014.1
20260507032525 9 91 8.0 22.5 0.10 0.15 0.13 85 1014.2
20260507032025 9 84 8.0 20.9 0.10 0.15 0.13 86 1014.3
20260507031537 9 63 9.7 24.1 0.10 0.15 0.13 86 1014.2
20260507031022 9 103 4.8 24.1 0.10 0.15 0.13 86 1014.3
20260507030526 9 133 9.7 24.1 0.10 0.15 0.13 87 1014.3
20260507030038 9 101 9.7 22.5 0.10 0.15 0.13 87 1014.2
20260507025522 9 95 8.0 24.1 0.08 0.13 0.10 87 1014.2
20260507025025 9 56 8.0 24.1 0.08 0.13 0.10 87 1014.4
20260507024542 9 122 4.8 14.5 0.08 0.10 0.08 87 1014.5
20260507024025 9 145 4.8 16.1 0.05 0.08 0.08 86 1014.7
20260507023525 9 92 6.4 16.1 0.00 0.05 0.03 85 1014.9
20260507023047 10 79 8.0 16.1 0.00 0.05 0.03 83 1015.0
20260507022525 10 94 3.2 16.1 0.00 0.03 0.00 82 1015.1
20260507022026 10 103 0.0 16.1 0.00 0.03 0.00 82 1015.1
20260507021543 10 102 4.8 16.1 0.00 0.03 0.00 82 1014.9
20260507021026 10 63 6.4 16.1 0.00 0.03 0.00 82 1014.7
20260507020526 9 83 6.4 16.1 0.00 0.03 0.00 83 1014.7
20260507020230 9 69 8.0 17.7 0.00 0.03 0.00 84 1014.6
20260507015526 9 49 6.4 17.7 0.00 0.03 0.00 84 1014.7
20260507015026 9 123 8.0 17.7 0.00 0.03 0.00 85 1014.8
20260507014546 9 150 3.2 8.0 0.00 0.03 0.00 86 1014.6
20260507014026 9 98 1.6 9.7 0.00 0.03 0.00 86 1014.7
20260507013526 9 54 4.8 12.9 0.00 0.03 0.00 87 1014.7
20260507013049 9 83 4.8 12.9 0.00 0.03 0.00 87 1014.9
20260507012527 9 11 1.6 12.9 0.00 0.03 0.00 87 1014.8
20260507012026 9 120 1.6 12.9 0.00 0.03 0.00 87 1014.7
20260507011538 9 80 4.8 9.7 0.00 0.03 0.00 87 1014.7
20260507011025 9 70 1.6 9.7 0.00 0.03 0.00 87 1014.8
20260507010526 9 101 1.6 14.5 0.00 0.03 0.00 86 1014.9
20260507010039 9 59 3.2 14.5 0.00 0.03 0.00 86 1014.9
20260507005526 10 69 1.6 20.9 0.00 0.03 0.00 85 1014.9
20260507005026 10 69 4.8 20.9 0.00 0.03 0.00 84 1015.0
20260507004548 10 115 8.0 20.9 0.00 0.03 0.00 83 1014.9
20260507004025 10 81 6.4 22.5 0.00 0.03 0.00 83 1014.9
20260507003523 10 120 6.4 22.5 0.00 0.03 0.00 82 1015.1
20260507003044 10 116 8.0 22.5 0.00 0.03 0.00 82 1015.1
20260507002523 10 110 4.8 20.9 0.00 0.03 0.00 83 1015.2
20260507002026 10 111 6.4 20.9 0.00 0.03 0.00 83 1015.2
20260507001545 10 84 8.0 20.9 0.00 0.03 0.00 82 1015.1
20260507001022 10 96 8.0 25.7 0.00 0.03 0.00 81 1015.3
20260507000525 11 99 12.9 25.7 0.00 0.03 0.00 79 1015.3
20260507000038 11 143 8.0 24.1 0.00 0.03 0.00 79 1015.2
20260506235528 11 76 9.7 22.5 0.00 0.03 0.00 78 1015.1